Location: Dammartin
(48.9032°N, 1.6195°E)
Time: 18:54:11
(UTC+00:00)

Cosmos 2278 Rocket - Visible Passes

Search period start: 01 October 2023 00:00
Search period end: 11 October 2023 00:00
Orbit: 839 x 846 km, 71.0° (Epoch: 01 October)

Date Brightness Start Highest point End Pass type
(mag) Time Alt. Az. Time Alt. Az. Time Alt. Az.
01 Oct 2.6 19:15:15 10° NNW 19:20:52 63° WSW 19:26:23 10° SSE visible
02 Oct 2.6 19:00:33 10° NNW 19:06:11 66° WSW 19:11:47 10° SSE visible
02 Oct 5.0 20:48:10 10° W 20:49:07 10° W 20:50:05 10° WSW visible
03 Oct 2.5 18:45:52 10° NNW 18:51:31 68° WSW 18:57:07 10° SSE visible
03 Oct 5.0 20:33:00 10° W 20:34:29 11° W 20:35:58 10° WSW visible
04 Oct 2.5 18:31:10 10° NNW 18:36:50 71° WSW 18:42:27 10° SSE visible
04 Oct 5.0 20:18:00 10° WNW 20:19:51 12° W 20:21:42 10° WSW visible
05 Oct 2.5 18:16:29 10° NNW 18:22:10 74° WSW 18:27:48 10° SSE visible
05 Oct 5.0 20:03:03 10° WNW 20:05:12 12° W 20:07:22 10° WSW visible
06 Oct 2.4 18:01:47 10° NNW 18:07:29 77° WSW 18:13:07 10° SSE visible
06 Oct 5.0 19:48:09 10° WNW 19:50:34 13° W 19:52:59 10° WSW visible
07 Oct 2.4 17:47:07 10° NNW 17:52:48 80° WSW 17:58:27 10° SSE visible
07 Oct 5.1 19:33:17 10° WNW 19:35:56 14° W 19:38:34 10° SW visible
08 Oct 5.1 19:18:26 10° WNW 19:21:17 14° W 19:24:08 10° SW visible
09 Oct 5.1 19:03:36 10° WNW 19:06:39 15° W 19:09:41 10° SW visible
10 Oct 5.1 18:48:48 10° WNW 18:52:00 16° W 18:55:12 10° SW visible
